CAPE
nan nan nan nan nan nan nan nan nan nan nan nan nan nan nan nan nan nan nan nan nan nan nan nan nan nan nan nan nan nan 3 17 31 31 40 52 53 53 56 57 57 65 65 70 70 74 84 84 84 83 83 90 100 100 106 113 113 121 141 160 160 162 171 174 174 187 194 211 206 206 199 199 193 193 195 193 178 178 168 150 150 155 165 181 181 199
nan nan nan nan nan nan nan nan nan nan nan nan nan nan nan nan nan nan nan nan nan nan nan nan nan nan nan nan nan nan 15 32 43 43 54 65 67 67 72 75 75 75 81 82 82 86 83 84 84 83 81 83 90 90 93 106 106 124 135 150 150 155 158 172 172 180 185 202 203 203 196 189 184 184 175 166 153 153 135 132 132 154 174 199 199 226
nan nan nan nan nan nan nan nan nan nan nan nan nan nan nan nan nan nan nan nan nan nan nan nan nan nan nan nan 7 7 26 45 56 56 65 72 75 75 80 83 83 88 90 92 92 88 89 87 87 83 81 89 92 92 101 115 115 130 140 150 150 153 162 163 163 158 165 174 180 180 179 167 163 163 144 136 120 120 120 135 135 164 197 221 221 253
nan nan nan nan nan nan nan nan nan nan nan nan nan nan nan nan nan nan nan nan nan nan nan nan nan nan nan nan 1 1 32 50 64 64 68 76 82 82 81 91 91 93 99 102 102 98 90 91 91 87 88 97 106 106 120 129 129 139 150 159 159 168 168 152 152 138 132 135 140 140 134 129 121 121 109 91 103 103 115 153 153 186 227 254 254 287
nan nan nan nan nan nan nan nan nan nan nan nan nan nan nan nan nan nan nan nan nan nan nan nan nan nan nan nan nan nan 29 55 62 62 69 72 76 76 81 83 83 93 95 102 102 104 100 96 96 98 104 113 122 122 132 147 147 156 160 168 168 170 170 149 149 134 116 107 96 96 97 88 81 81 85 90 102 102 126 171 171 210 250 293 293 309
nan nan nan nan nan nan nan nan nan nan nan nan nan nan nan nan nan nan nan nan nan nan nan nan nan nan nan nan nan nan 28 53 58 58 57 59 58 58 62 71 71 80 90 98 98 102 109 110 110 113 116 125 135 135 150 160 160 170 180 182 182 169 152 131 131 118 99 89 74 74 76 68 71 71 72 88 105 105 128 173 173 241 271 300 300 310
nan nan nan nan nan nan nan nan nan nan nan nan nan nan nan nan nan nan nan nan nan nan nan nan nan nan nan nan 6 6 27 31 35 35 29 35 37 37 47 52 52 65 76 94 94 110 119 123 123 127 137 148 158 158 167 178 178 182 179 168 168 156 138 120 120 101 92 72 63 63 59 57 61 61 72 86 103 103 135 186 186 247 276 287 287 275
nan nan nan nan nan nan nan nan nan nan nan nan nan nan nan nan nan nan nan nan nan nan nan nan nan nan nan nan nan nan nan nan nan nan nan nan 0 0 9 44 44 59 76 99 99 114 129 138 138 142 149 169 173 173 176 174 174 166 152 132 132 116 106 99 99 85 75 64 60 60 53 53 64 64 82 111 128 128 157 176 176 185 197 205 205 222
nan nan nan nan nan nan nan nan nan nan nan nan nan nan nan nan nan nan nan nan nan nan nan nan nan nan nan nan nan nan nan nan nan nan nan nan nan nan nan 41 41 63 89 105 105 121 134 141 141 147 156 153 163 163 160 154 154 147 135 116 116 102 86 85 85 81 74 64 61 61 64 66 77 77 95 127 141 141 141 137 137 137 154 176 176 209
nan nan nan nan nan nan nan nan nan nan nan nan nan nan nan nan nan nan nan nan nan nan nan nan nan nan nan nan nan nan nan nan nan nan 16 0 32 32 23 24 24 33 87 115 115 130 141 139 139 148 145 147 140 140 141 135 135 130 119 105 105 97 86 78 78 78 71 71 73 73 72 78 88 88 108 136 133 133 124 115 115 106 123 152 152 186
nan nan nan nan nan nan nan nan nan nan nan nan nan nan nan nan nan nan nan nan nan nan nan nan nan nan nan nan nan nan nan nan nan nan nan nan 5 5 25 30 30 49 80 103 103 119 129 136 136 132 139 140 141 141 129 121 121 116 116 109 109 94 87 83 83 76 80 80 82 82 86 96 107 107 134 135 121 121 107 99 99 97 109 127 127 146
nan nan nan nan nan nan nan nan nan nan nan nan nan nan nan nan nan nan nan nan nan nan nan nan nan nan nan nan nan nan nan nan nan nan nan nan nan nan nan nan nan 8 25 52 52 66 94 119 119 120 121 112 131 131 124 104 104 113 108 100 100 95 93 93 93 86 83 86 89 89 92 108 126 126 133 126 107 107 97 85 85 94 101 111 111 119
nan nan nan nan nan nan nan nan nan nan nan nan nan nan nan nan nan nan nan nan nan nan nan nan nan nan nan nan nan nan nan nan nan nan nan nan nan nan nan nan nan nan nan nan nan nan 28 88 88 106 120 111 116 116 123 107 107 104 104 107 107 101 104 98 98 95 91 89 90 90 103 113 125 125 124 106 92 92 85 89 89 92 99 100 100 107
nan nan nan nan nan nan nan nan nan nan nan nan nan nan nan nan nan nan nan nan nan nan nan nan nan nan nan nan nan nan nan nan nan nan nan nan nan nan nan 2 2 3 nan nan nan nan 10 30 30 3 64 74 76 76 86 103 103 110 109 119 119 113 109 102 102 98 93 94 95 95 101 106 113 113 105 93 87 87 83 86 86 95 102 101 101 107
nan nan nan nan nan nan nan nan nan nan nan nan nan nan nan nan nan nan nan nan nan nan nan nan nan nan nan nan nan nan nan 1 1 1 nan nan nan nan nan nan nan nan nan nan nan nan nan nan nan nan nan nan 8 8 56 83 83 116 115 124 124 121 117 103 103 99 94 95 94 94 100 98 99 99 91 89 89 89 94 98 98 97 101 111 111 112
nan nan nan nan nan nan nan nan 1 1 4 nan nan nan nan nan nan nan nan nan nan nan nan nan nan nan nan nan nan nan 1 10 8 8 nan nan nan nan nan nan nan nan nan nan nan nan nan nan nan nan nan 7 79 79 109 116 116 123 120 120 120 118 107 104 104 99 100 96 99 99 94 93 83 83 83 80 85 85 92 98 98 99 97 106 106 116
nan nan nan nan nan 3 5 8 7 7 3 nan nan nan nan nan nan nan nan nan nan nan nan nan nan nan 0 18 30 30 0 nan 0 0 nan nan nan nan nan nan nan nan nan nan nan nan nan nan nan nan nan 46 103 103 105 112 112 114 118 115 115 113 112 108 108 104 99 96 89 89 89 83 82 82 77 77 84 84 93 93 93 93 99 109 109 120
nan nan nan 2 2 7 7 4 1 1 1 0 0 0 nan nan nan nan nan nan nan nan 8 15 15 12 3 4 10 10 nan nan nan nan nan nan nan nan nan nan nan nan 0 nan nan nan nan nan nan nan nan 88 99 99 89 93 93 109 107 110 110 118 115 106 106 102 97 88 87 87 84 83 75 75 77 78 83 83 86 90 90 91 95 103 103 122
nan nan nan 2 2 5 2 nan 1 1 3 2 nan nan nan nan nan nan nan nan nan 18 34 24 24 12 7 nan nan nan nan nan nan nan 5 4 nan nan nan nan nan 7 6 0 0 nan nan nan nan nan 64 75 79 79 78 87 87 97 107 110 110 117 108 103 103 98 88 80 78 78 79 77 75 75 77 84 77 77 81 82 82 87 97 109 109 123
nan nan nan nan nan 1 1 2 5 5 6 6 1 1 0 0 0 0 2 28 28 39 35 27 27 21 12 3 nan nan nan nan nan nan 12 18 13 13 nan 9 9 13 6 nan nan nan nan nan nan nan 7 31 56 56 66 81 81 96 110 108 108 114 105 95 95 89 81 76 76 76 73 73 74 74 70 78 74 74 79 83 83 82 94 108 108 132
nan nan nan nan nan 0 3 5 4 4 5 3 nan nan 3 10 22 22 26 20 20 23 28 30 30 26 24 14 nan nan nan nan 6 6 28 32 18 18 0 4 4 8 1 nan nan nan nan nan nan nan nan 17 47 47 67 77 77 92 96 99 99 100 97 82 82 77 76 76 75 75 73 72 74 74 73 73 69 69 77 83 83 92 107 117 117 136
nan nan nan nan nan 0 5 nan 3 3 12 18 9 9 31 29 19 19 5 4 4 20 30 27 27 14 1 nan nan nan nan nan 12 12 45 51 22 22 nan 1 1 1 nan nan nan nan nan nan nan nan nan 20 42 42 51 66 66 77 81 90 90 85 82 77 77 69 70 67 64 64 66 65 66 66 67 65 70 70 77 84 84 99 109 120 120 131
nan nan nan nan nan nan 1 nan 2 2 42 42 47 47 15 4 23 23 22 30 30 30 24 5 5 nan nan nan nan nan nan 1 23 23 44 45 30 30 nan nan nan nan nan nan nan nan nan nan nan nan nan 18 25 25 40 50 50 61 71 79 79 74 69 68 68 65 62 61 62 62 60 63 65 65 64 66 67 67 80 87 87 101 111 121 121 126
nan nan nan nan nan 0 6 7 8 8 9 2 nan nan nan nan nan nan 19 19 19 5 nan nan nan nan nan nan nan nan nan 2 5 5 17 33 10 10 nan nan nan nan nan nan nan nan nan nan nan nan nan nan 9 9 23 35 35 46 57 60 60 66 63 60 60 54 55 55 56 56 56 58 62 62 62 61 69 69 78 84 84 99 107 112 112 115
nan nan 0 2 2 6 2 nan nan nan nan nan nan nan nan nan 14 14 12 nan nan nan nan nan nan nan nan nan nan nan nan nan nan nan 2 15 nan nan nan nan nan nan nan nan nan nan nan nan nan nan nan nan 3 3 13 21 21 36 46 54 54 53 52 49 49 48 45 47 50 50 54 54 57 57 60 60 65 65 73 78 78 88 96 99 99 100
nan 1 nan nan nan 3 1 3 6 6 nan nan nan nan nan 7 3 3 nan nan nan nan nan nan nan nan nan nan nan nan nan nan nan nan 3 3 nan nan nan nan nan nan nan nan nan nan nan nan nan nan nan nan 1 1 9 21 21 30 41 41 41 43 44 40 40 37 36 38 41 41 47 50 51 51 54 56 60 60 69 70 70 83 90 83 83 76
nan nan nan nan nan nan nan 0 3 3 25 22 9 9 5 nan nan nan nan nan nan nan nan 0 0 0 0 0 nan nan 12 13 1 1 nan nan nan nan nan nan nan nan nan nan nan nan nan nan nan nan nan nan nan nan 7 17 17 27 31 33 33 31 31 29 29 27 28 31 34 34 39 42 43 43 44 51 55 55 61 62 62 71 73 66 66 60
nan nan nan nan nan nan nan 0 8 8 20 34 59 59 19 nan nan nan 2 1 1 nan nan 2 2 3 3 3 0 0 15 19 nan nan nan nan nan nan nan nan nan nan nan nan nan nan 1 nan nan nan nan nan nan nan nan 12 12 18 20 22 22 20 22 19 19 20 22 26 28 28 31 34 36 36 37 41 47 47 52 58 58 69 64 38 38 7
nan nan nan nan nan nan 3 15 28 28 33 43 63 63 24 nan 2 2 8 2 2 nan 0 3 3 4 6 8 0 0 14 8 nan nan nan nan nan nan nan nan nan nan nan nan nan nan nan nan nan nan nan nan nan nan nan 5 5 9 12 14 14 13 12 12 12 15 18 22 24 24 25 28 29 29 34 38 41 41 51 56 56 59 46 20 20 0
nan nan nan nan nan 0 3 nan 31 31 41 50 55 55 37 nan 0 0 2 0 0 1 4 6 6 7 10 9 0 0 3 nan nan nan nan nan nan nan nan nan nan nan nan 0 0 nan nan nan nan nan nan nan nan nan nan nan nan nan nan 7 7 5 6 8 8 10 14 17 19 19 21 24 27 27 32 37 43 43 51 60 60 51 17 1 1 0
nan nan nan nan nan nan nan nan 0 0 27 43 42 42 12 nan 2 2 2 2 2 7 8 7 7 9 11 11 5 5 1 nan nan nan nan 0 nan nan nan nan nan nan nan 3 3 3 nan nan nan nan nan nan nan nan nan nan nan nan nan nan nan nan 2 6 6 8 11 12 15 15 18 21 25 25 31 35 44 44 54 62 62 48 7 0 0 1
nan nan nan nan nan nan nan nan nan nan nan nan nan nan 1 18 14 14 8 8 8 12 13 13 13 13 12 11 12 12 12 nan 35 35 nan nan nan nan nan nan nan nan nan 1 1 4 1 0 0 nan nan nan nan nan nan nan nan nan nan nan nan nan nan 0 0 1 0 6 9 9 14 17 23 23 26 34 37 37 43 50 50 47 21 5 5 4
nan nan nan nan nan nan nan nan nan nan nan nan nan nan nan 12 28 28 15 7 7 7 9 10 10 9 5 7 4 4 nan nan 5 5 0 nan nan nan nan nan nan nan nan nan nan 0 0 0 0 nan nan nan nan nan nan nan nan nan nan nan nan nan nan nan nan nan nan nan nan nan 8 12 20 20 23 28 32 32 38 42 42 45 41 8 8 4
nan nan nan nan nan nan nan nan nan nan nan nan nan nan 5 5 7 7 13 3 3 2 2 1 1 2 4 5 nan nan nan nan nan nan 6 nan nan nan nan nan nan nan nan nan nan nan nan nan nan 0 nan nan nan nan nan nan nan nan nan nan nan nan nan nan nan nan nan nan nan nan nan nan 12 12 14 22 27 27 32 37 37 40 38 22 22 9
nan 0 0 nan nan nan nan nan nan nan nan nan nan nan 2 4 2 2 1 nan nan nan nan nan nan 0 2 1 nan nan nan nan nan nan 6 nan nan nan nan nan nan nan nan nan nan nan 0 nan nan 2 1 nan nan nan nan nan nan nan nan nan nan nan nan nan nan nan nan nan nan nan nan nan nan nan 3 13 23 23 31 31 31 32 30 31 31 20
nan nan nan nan nan 1 nan nan nan nan nan nan nan nan 1 nan nan nan nan nan nan nan nan nan nan nan nan nan nan nan nan nan nan nan 1 nan nan nan nan nan nan nan nan nan nan nan 0 nan nan 3 4 nan nan nan nan nan nan nan nan nan nan nan nan nan nan nan nan nan nan nan nan nan nan nan 0 16 23 23 21 22 22 22 21 22 22 21
nan nan nan nan nan 3 4 nan nan nan nan nan nan nan 1 nan nan nan nan nan nan nan nan nan nan nan nan nan nan nan nan nan nan nan nan nan nan nan nan nan nan nan nan nan nan nan 0 0 0 1 nan nan nan nan nan nan nan nan nan nan nan nan nan nan nan nan nan nan nan nan nan nan nan nan 2 15 12 12 11 13 13 12 13 13 13 12
nan 0 5 5 5 5 6 1 nan nan nan nan 0 0 nan nan nan nan nan nan nan nan nan nan nan nan nan nan nan nan nan nan nan nan nan nan nan nan nan nan nan nan nan nan nan nan 0 1 1 0 nan nan 0 0 nan nan nan nan nan nan nan nan nan nan nan nan nan nan 1 1 2 0 nan nan nan nan nan nan nan nan nan 2 6 6 6 8
2 5 6 8 8 8 3 nan nan nan nan nan 1 1 nan nan nan nan nan nan nan nan nan nan nan nan nan nan nan nan nan nan nan nan nan nan nan nan nan nan nan nan nan nan nan nan 1 2 2 1 0 nan nan nan nan nan nan nan nan nan nan nan nan nan nan nan nan nan 1 1 0 nan nan nan nan nan nan nan nan nan nan nan nan nan nan 2
6 5 5 7 7 2 0 nan nan nan nan nan nan nan nan nan nan nan nan nan nan nan nan nan nan nan nan nan nan nan nan nan nan nan nan nan nan nan nan nan nan nan nan nan nan 1 2 2 2 2 4 0 0 0 nan nan nan nan nan nan nan nan nan nan nan nan nan nan nan nan nan nan nan nan nan nan nan nan nan nan nan nan nan nan nan nan
6 4 3 1 1 1 nan nan nan nan nan nan nan nan nan nan nan nan nan nan nan nan nan nan nan nan nan nan nan nan nan nan nan nan nan nan nan nan nan nan nan nan nan 1 1 1 1 0 0 1 1 0 1 1 nan nan nan nan 2 nan nan nan nan nan nan nan nan nan nan nan 0 0 1 1 nan nan nan nan nan nan nan nan nan nan nan nan
10 7 3 nan nan nan nan nan nan nan 2 nan nan nan nan nan nan nan nan nan nan nan nan nan nan nan nan nan nan nan nan nan nan nan nan nan nan nan nan nan nan nan 1 nan nan nan nan 1 1 2 0 nan nan nan nan nan nan nan nan nan nan nan nan nan nan nan nan nan nan nan 3 0 nan nan nan nan nan nan nan nan nan nan nan nan nan nan
7 5 0 nan nan nan nan nan 0 0 5 nan nan nan nan nan nan nan nan nan nan nan nan nan nan nan nan nan nan nan nan nan nan nan nan nan nan nan nan nan nan nan nan nan nan nan 0 1 1 nan nan nan nan nan nan nan nan nan nan nan nan nan nan nan nan nan nan nan nan nan nan nan nan nan nan nan nan nan nan nan nan 0 0 nan nan nan
6 3 0 nan nan nan nan nan 10 10 3 nan nan nan nan nan nan nan nan nan nan nan nan nan nan nan nan nan nan nan nan nan nan nan nan nan nan nan nan nan nan nan nan nan nan nan nan nan nan nan nan nan nan nan nan nan nan nan nan nan nan nan nan nan nan nan nan nan nan nan nan nan nan nan nan nan nan nan nan nan nan nan nan nan nan nan
1 1 1 3 3 nan nan 1 10 10 4 2 nan nan nan nan nan nan nan nan nan nan nan nan nan nan nan nan nan nan nan nan nan nan nan nan nan nan nan nan nan nan nan nan nan nan nan nan nan nan nan nan nan nan nan nan nan nan nan nan nan nan nan nan nan nan nan nan nan nan nan nan nan nan nan nan nan nan nan nan nan nan nan nan nan nan
2 1 0 1 1 0 1 4 1 1 nan nan nan nan nan nan nan nan nan nan nan nan nan nan nan nan nan nan nan nan nan nan nan nan nan nan nan nan nan nan nan nan nan nan nan nan nan nan nan nan nan nan nan nan nan nan nan nan nan nan nan nan nan nan nan nan nan nan nan nan nan nan nan nan nan nan nan nan nan nan nan nan nan nan nan nan
2 0 nan 0 0 1 nan nan nan nan nan nan nan nan nan nan nan nan nan nan nan nan nan nan nan nan nan nan nan nan nan nan nan nan nan nan nan nan nan nan nan nan nan nan nan nan nan nan nan nan nan nan nan nan nan nan nan nan nan nan nan nan nan nan nan nan nan nan nan nan nan nan nan nan nan nan nan nan nan nan nan nan nan nan nan nan
4 1 nan 2 2 3 nan nan nan nan nan nan nan nan nan nan nan nan nan nan nan nan nan nan nan nan nan nan nan nan nan nan nan nan nan nan nan nan nan nan nan nan nan nan nan nan nan nan nan nan nan nan nan nan nan nan nan nan nan nan nan nan nan nan nan nan nan nan nan nan nan nan nan nan nan nan nan nan nan nan nan nan nan nan nan nan
2 0 nan 2 2 3 nan nan nan nan nan nan nan nan nan nan 14 14 nan nan nan nan nan nan nan nan nan nan nan nan nan nan nan nan nan nan nan nan nan nan nan nan nan nan nan nan nan nan nan nan nan nan nan nan nan nan nan nan nan nan nan nan nan nan nan nan nan nan nan nan nan nan nan nan nan nan nan nan nan nan nan nan nan nan nan 0
1 nan 0 2 2 3 nan nan nan nan nan nan nan nan nan nan nan nan nan nan nan nan nan nan nan nan nan nan nan nan nan nan nan nan nan nan nan nan nan nan nan nan nan nan nan nan nan nan nan nan nan nan nan nan nan nan nan nan nan nan nan nan nan nan nan nan nan nan nan nan nan nan nan nan nan nan nan nan nan nan nan nan nan nan nan 4
0 nan nan 0 0 3 nan nan nan nan nan 1 1 1 nan nan nan nan nan nan nan nan nan nan nan nan nan 1 0 0 nan nan nan nan nan nan nan nan nan nan nan nan nan nan nan nan nan nan nan nan nan nan nan nan nan nan nan nan nan nan nan nan nan nan nan nan nan nan nan nan nan nan nan nan nan nan nan nan nan nan nan nan nan nan nan 6
CIN
nan nan nan nan nan nan nan nan nan nan nan nan nan nan nan nan nan nan nan nan nan nan nan nan nan nan nan nan nan nan -1 -0 -0 -0 -0 -0 -0 -0 -0 -0 -0 -0 -0 -0 -0 -0 -0 -0 -0 -0 -0 -0 -0 -0 -0 -0 -0 -0 -0 -0 -0 -0 -0 -0 -0 -0 -0 -0 -0 -0 -0 -0 -0 -0 -0 -0 -0 -0 -0 -0 -0 -0 -0 -0 -0 -0
nan nan nan nan nan nan nan nan nan nan nan nan nan nan nan nan nan nan nan nan nan nan nan nan nan nan nan nan nan nan -0 -0 -0 -0 -0 -0 -0 -0 -0 -0 -0 -0 -0 -0 -0 -0 -0 -0 -0 -0 -0 -0 -0 -0 -0 -0 -0 -0 -0 -0 -0 -0 -0 -0 -0 -0 -0 -0 -0 -0 -0 -0 -0 -0 -0 -0 -0 -0 -0 -0 -0 -0 -0 -0 -0 -0
nan nan nan nan nan nan nan nan nan nan nan nan nan nan nan nan nan nan nan nan nan nan nan nan nan nan nan nan -14 -14 -1 -0 -0 -0 -0 -0 -0 -0 -0 -0 -0 -0 -0 -0 -0 -0 -0 -0 -0 -0 -0 -0 -0 -0 -0 -0 -0 -0 -0 -0 -0 -0 -0 -0 -0 -0 -0 -0 -0 -0 -0 -0 -0 -0 -0 -0 -0 -0 -0 -0 -0 -0 -0 -0 -0 -0
nan nan nan nan nan nan nan nan nan nan nan nan nan nan nan nan nan nan nan nan nan nan nan nan nan nan nan nan -42 -42 -2 -0 -0 -0 -0 -0 -0 -0 -0 -0 -0 -0 -0 -0 -0 -0 -0 -0 -0 -0 -0 -0 -0 -0 -0 -0 -0 -0 -0 -0 -0 -0 -0 -0 -0 -0 -0 -0 -0 -0 -0 -0 -0 -0 -0 -0 -0 -0 -0 -0 -0 -0 -0 -0 -0 -0
nan nan nan nan nan nan nan nan nan nan nan nan nan nan nan nan nan nan nan nan nan nan nan nan nan nan nan nan nan nan -10 -0 -0 -0 -0 -0 -0 -0 -0 -0 -0 -0 -0 -0 -0 -0 -0 -0 -0 -0 -0 -0 -0 -0 -0 -0 -0 -0 -0 -0 -0 -0 -0 -0 -0 -0 -0 -0 -0 -0 -0 -0 -0 -0 -0 -0 -0 -0 -0 -0 -0 -0 -0 -0 -0 -0
nan nan nan nan nan nan nan nan nan nan nan nan nan nan nan nan nan nan nan nan nan nan nan nan nan nan nan nan nan nan -16 -0 -0 -0 -0 -0 -0 -0 -0 -0 -0 -0 -0 -0 -0 -0 -0 -0 -0 -0 -0 -0 -0 -0 -0 -0 -0 -0 -0 -0 -0 -0 -0 -0 -0 -0 -0 -0 -0 -0 -0 -0 -0 -0 -0 -0 -0 -0 -0 -0 -0 -0 -0 -0 -0 -0
nan nan nan nan nan nan nan nan nan nan nan nan nan nan nan nan nan nan nan nan nan nan nan nan nan nan nan nan -56 -56 -19 -10 -1 -1 -1 -1 -0 -0 -0 -0 -0 -0 -0 -0 -0 -0 -0 -0 -0 -0 -0 -0 -0 -0 -0 -0 -0 -0 -0 -0 -0 -0 -0 -0 -0 -0 -0 -0 -0 -0 -0 -0 -0 -0 -0 -0 -0 -0 -0 -0 -0 -0 -0 -0 -0 -0
nan nan nan nan nan nan nan nan nan nan nan nan nan nan nan nan nan nan nan nan nan nan nan nan nan nan nan nan nan nan nan nan nan nan nan nan -29 -29 -5 -0 -0 -0 -0 -0 -0 -0 -0 -0 -0 -0 -0 -0 -0 -0 -0 -0 -0 -0 -0 -0 -0 -0 -0 -0 -0 -0 -0 -0 -0 -0 -0 -0 -0 -0 -0 -0 -0 -0 -0 -0 -0 -0 -0 -0 -0 -0
nan nan nan nan nan nan nan nan nan nan nan nan nan nan nan nan nan nan nan nan nan nan nan nan nan nan nan nan nan nan nan nan nan nan nan nan nan nan nan -0 -0 -0 -0 -0 -0 -0 -0 -0 -0 -0 -0 -0 -0 -0 -0 -0 -0 -0 -0 -0 -0 -0 -0 -0 -0 -0 -0 -0 -0 -0 -0 -0 -0 -0 -0 -0 -0 -0 -0 -0 -0 -0 -0 -0 -0 -0
nan nan nan nan nan nan nan nan nan nan nan nan nan nan nan nan nan nan nan nan nan nan nan nan nan nan nan nan nan nan nan nan nan nan -1 -19 -0 -0 -0 -0 -0 -0 -0 -0 -0 -0 -0 -0 -0 -0 -0 -0 -0 -0 -0 -0 -0 -0 -0 -0 -0 -0 -0 -0 -0 -0 -0 -0 -0 -0 -0 -0 -0 -0 -0 -0 -0 -0 -0 -0 -0 -0 -0 -0 -0 -0
nan nan nan nan nan nan nan nan nan nan nan nan nan nan nan nan nan nan nan nan nan nan nan nan nan nan nan nan nan nan nan nan nan nan nan nan -4 -4 -0 -0 -0 -0 -0 -0 -0 -0 -0 -0 -0 -0 -0 -0 -0 -0 -0 -0 -0 -0 -0 -0 -0 -0 -0 -0 -0 -0 -0 -0 -0 -0 -0 -0 -0 -0 -0 -0 -0 -0 -0 -0 -0 -0 -0 -0 -0 -0
nan nan nan nan nan nan nan nan nan nan nan nan nan nan nan nan nan nan nan nan nan nan nan nan nan nan nan nan nan nan nan nan nan nan nan nan nan nan nan nan nan -17 -10 -3 -3 -0 -0 -0 -0 -0 -0 -0 -0 -0 -0 -0 -0 -0 -0 -0 -0 -0 -0 -0 -0 -0 -0 -0 -0 -0 -0 -0 -0 -0 -0 -0 -0 -0 -0 -0 -0 -0 -0 -0 -0 -0
nan nan nan nan nan nan nan nan nan nan nan nan nan nan nan nan nan nan nan nan nan nan nan nan nan nan nan nan nan nan nan nan nan nan nan nan nan nan nan nan nan nan nan nan nan nan -18 -1 -1 -0 -0 -0 -0 -0 -0 -0 -0 -0 -0 -0 -0 -0 -0 -0 -0 -0 -0 -0 -0 -0 -0 -0 -0 -0 -0 -0 -0 -0 -0 -0 -0 -0 -0 -0 -0 -0
nan nan nan nan nan nan nan nan nan nan nan nan nan nan nan nan nan nan nan nan nan nan nan nan nan nan nan nan nan nan nan nan nan nan nan nan nan nan nan -41 -41 -44 nan nan nan nan -29 -11 -11 -26 -0 -0 -0 -0 -0 -0 -0 -0 -0 -0 -0 -0 -0 -0 -0 -0 -0 -0 -0 -0 -0 -0 -0 -0 -0 -0 -0 -0 -0 -0 -0 -0 -0 -0 -0 -0
nan nan nan nan nan nan nan nan nan nan nan nan nan nan nan nan nan nan nan nan nan nan nan nan nan nan nan nan nan nan nan -4 -3 -3 nan nan nan nan nan nan nan nan nan nan nan nan nan nan nan nan nan nan -30 -30 -3 -0 -0 -0 -0 -0 -0 -0 -0 -0 -0 -0 -0 -0 -0 -0 -0 -0 -0 -0 -0 -0 -0 -0 -0 -0 -0 -0 -0 -0 -0 -0
nan nan nan nan nan nan nan nan -32 -32 -22 nan nan nan nan nan nan nan nan nan nan nan nan nan nan nan nan nan nan nan -8 -2 -7 -7 nan nan nan nan nan nan nan nan nan nan nan nan nan nan nan nan nan -29 -0 -0 -0 -0 -0 -0 -0 -0 -0 -0 -0 -0 -0 -0 -0 -0 -0 -0 -0 -0 -0 -0 -0 -0 -0 -0 -0 -0 -0 -0 -0 -0 -0 -0
nan nan nan nan nan -15 -19 -19 -21 -21 -27 nan nan nan nan nan nan nan nan nan nan nan nan nan nan nan -24 -6 -8 -8 -27 nan -21 -21 nan nan nan nan nan nan nan nan nan nan nan nan nan nan nan nan nan -6 -0 -0 -0 -0 -0 -0 -0 -0 -0 -0 -0 -0 -0 -0 -0 -0 -0 -0 -0 -0 -0 -0 -0 -0 -0 -0 -0 -0 -0 -0 -0 -0 -0 -0
nan nan nan -14 -14 -12 -16 -20 -31 -31 -30 -37 -44 -44 nan nan nan nan nan nan nan nan -15 -11 -11 -12 -9 -3 -21 -21 nan nan nan nan nan nan nan nan nan nan nan nan -27 nan nan nan nan nan nan nan nan -0 -0 -0 -0 -0 -0 -0 -0 -0 -0 -0 -0 -0 -0 -0 -0 -0 -0 -0 -0 -0 -0 -0 -0 -0 -0 -0 -0 -0 -0 -0 -0 -0 -0 -0
nan nan nan -12 -12 -15 -25 nan -30 -30 -23 -27 nan nan nan nan nan nan nan nan nan -9 -3 -5 -5 -9 -5 nan nan nan nan nan nan nan -12 -14 nan nan nan nan nan -17 -15 -41 -41 nan nan nan nan nan -0 -0 -0 -0 -0 -0 -0 -0 -0 -0 -0 -0 -0 -0 -0 -0 -0 -0 -0 -0 -0 -0 -0 -0 -0 -0 -0 -0 -0 -0 -0 -0 -0 -0 -0 -0
nan nan nan nan nan -20 -24 -27 -18 -18 -16 -18 -30 -30 -44 -48 -48 -48 -23 -4 -4 -2 -2 -3 -3 -6 -8 -12 nan nan nan nan nan nan -10 -9 -18 -18 nan -34 -34 -21 -28 nan nan nan nan nan nan nan -19 -0 -0 -0 -0 -0 -0 -0 -0 -0 -0 -0 -0 -0 -0 -0 -0 -0 -0 -0 -0 -0 -0 -0 -0 -0 -0 -0 -0 -0 -0 -0 -0 -0 -0 -0
nan nan nan nan nan -23 -15 -13 -18 -18 -16 -22 nan nan -27 -7 -3 -3 -3 -4 -4 -5 -5 -4 -4 -5 -6 -9 nan nan nan nan -25 -25 -7 -9 -27 -27 -78 -54 -54 -31 -37 nan nan nan nan nan nan nan nan -0 -0 -0 -0 -0 -0 -0 -0 -0 -0 -0 -0 -0 -0 -0 -0 -0 -0 -0 -0 -0 -0 -0 -0 -0 -0 -0 -0 -0 -0 -0 -0 -0 -0 -0
nan nan nan nan nan -27 -0 nan -11 -11 -2 -2 -7 -7 -1 -2 -2 -2 -6 -11 -11 -5 -3 -2 -2 -8 -20 nan nan nan nan nan -25 -25 -4 -4 -27 -27 nan -54 -54 -35 nan nan nan nan nan nan nan nan nan -0 -0 -0 -0 -0 -0 -0 -0 -0 -0 -0 -0 -0 -0 -0 -0 -0 -0 -0 -0 -0 -0 -0 -0 -0 -0 -0 -0 -0 -0 -0 -0 -0 -0 -0
nan nan nan nan nan nan -3 nan -8 -8 -1 -1 -1 -1 -7 -11 -2 -2 -2 -2 -2 -1 -2 -7 -7 nan nan nan nan nan nan -76 -28 -28 -7 -4 -11 -11 nan nan nan nan nan nan nan nan nan nan nan nan nan -0 -0 -0 -0 -0 -0 -0 -0 -0 -0 -0 -0 -0 -0 -0 -0 -0 -0 -0 -0 -0 -0 -0 -0 -0 -0 -0 -0 -0 -0 -0 -0 -0 -0 -0
nan nan nan nan nan -10 -6 -8 -14 -14 -21 -37 nan nan nan nan nan nan -8 -7 -7 -10 nan nan nan nan nan nan nan nan nan -57 -56 -56 -27 -6 -23 -23 nan nan nan nan nan nan nan nan nan nan nan nan nan nan -0 -0 -0 -0 -0 -0 -0 -0 -0 -0 -0 -0 -0 -0 -0 -0 -0 -0 -0 -0 -0 -0 -0 -0 -0 -0 -0 -0 -0 -0 -0 -0 -0 -0
nan nan -14 -15 -15 -15 -25 nan nan nan nan nan nan nan nan nan -28 -28 -20 nan nan nan nan nan nan nan nan nan nan nan nan nan nan nan -44 -11 nan nan nan nan nan nan nan nan nan nan nan nan nan nan nan nan -0 -0 -0 -0 -0 -0 -0 -0 -0 -0 -0 -0 -0 -0 -0 -0 -0 -0 -0 -0 -0 -0 -0 -0 -0 -0 -0 -0 -0 -0 -0 -0 -0 -0
nan -20 nan nan nan -5 -0 -4 -0 -0 nan nan nan nan nan -37 -36 -36 nan nan nan nan nan nan nan nan nan nan nan nan nan nan nan nan -32 -21 nan nan nan nan nan nan nan nan nan nan nan nan nan nan nan nan -1 -1 -0 -0 -0 -0 -0 -0 -0 -0 -0 -0 -0 -0 -0 -0 -0 -0 -0 -0 -0 -0 -0 -0 -0 -0 -0 -0 -0 -0 -0 -0 -0 -0
nan nan nan nan nan nan nan -7 -0 -0 -0 -0 -23 -23 -31 nan nan nan nan nan nan nan nan -4 -4 -8 -8 -12 nan nan -20 -20 -50 -50 nan nan nan nan nan nan nan nan nan nan nan nan nan nan nan nan nan nan nan nan -0 -0 -0 -0 -0 -0 -0 -0 -0 -0 -0 -0 -0 -0 -0 -0 -0 -0 -0 -0 -0 -0 -0 -0 -0 -0 -0 -0 -0 -0 -0 -0
nan nan nan nan nan nan nan -0 -0 -0 -0 -0 -0 -0 -3 nan nan nan -6 -8 -8 nan nan -2 -2 -1 -2 -3 -12 -12 -21 -9 nan nan nan nan nan nan nan nan nan nan nan nan nan nan -0 nan nan nan nan nan nan nan nan -0 -0 -0 -0 -0 -0 -0 -0 -0 -0 -0 -0 -0 -0 -0 -0 -0 -0 -0 -0 -0 -0 -0 -0 -0 -0 -0 -0 -0 -0 -5
nan nan nan nan nan nan -0 -0 -0 -0 -0 -0 -0 -0 -2 nan -8 -8 -0 -6 -6 nan -2 -1 -1 -0 -1 -1 -17 -17 -21 -18 nan nan nan nan nan nan nan nan nan nan nan nan nan nan nan nan nan nan nan nan nan nan nan -0 -0 -0 -0 -0 -0 -0 -0 -0 -0 -0 -0 -0 -0 -0 -0 -0 -0 -0 -0 -0 -0 -0 -0 -0 -0 -0 -0 -0 -0 -7
nan nan nan nan nan -4 -16 nan -5 -5 -0 -0 -0 -0 -0 nan -9 -9 -2 -9 -9 -3 -0 -0 -0 -0 -1 -4 -21 -21 -20 nan nan nan nan nan nan nan nan nan nan nan nan -4 -4 nan nan nan nan nan nan nan nan nan nan nan nan nan nan -0 -0 -0 -0 -0 -0 -0 -0 -0 -0 -0 -0 -0 -0 -0 -0 -0 -0 -0 -0 -0 -0 -0 -1 -6 -6 -6
nan nan nan nan nan nan nan nan -53 -53 -1 -0 -0 -0 -8 nan -10 -10 -10 -9 -9 -2 -0 -0 -0 -0 -0 -2 -5 -5 -14 nan nan nan nan -6 nan nan nan nan nan nan nan -2 -2 -2 nan nan nan nan nan nan nan nan nan nan nan nan nan nan nan nan -0 -0 -0 -0 -0 -0 -0 -0 -0 -0 -0 -0 -0 -0 -0 -0 -0 -0 -0 -0 -3 -6 -6 -4
nan nan nan nan nan nan nan nan nan nan nan nan nan nan -23 -8 -15 -15 -18 -13 -13 -5 -1 -1 -1 -1 -1 -1 -0 -0 -1 nan -9 -9 nan nan nan nan nan nan nan nan nan -12 -12 -4 -3 -1 -1 nan nan nan nan nan nan nan nan nan nan nan nan nan nan -0 -0 -0 -0 -0 -0 -0 -0 -0 -0 -0 -0 -0 -0 -0 -0 -0 -0 -0 -0 -2 -2 -1
nan nan nan nan nan nan nan nan nan nan nan nan nan nan nan -13 -4 -4 -12 -18 -18 -9 -1 -0 -0 -1 -2 -2 -4 -4 nan nan -16 -16 -28 nan nan nan nan nan nan nan nan nan nan -9 -5 -2 -2 nan nan nan nan nan nan nan nan nan nan nan nan nan nan nan nan nan nan nan nan nan -0 -0 -0 -0 -0 -0 -0 -0 -0 -0 -0 -0 -0 -1 -1 -1
nan nan nan nan nan nan nan nan nan nan nan nan nan nan -17 -19 -18 -18 -13 -23 -23 -18 -8 -4 -4 -0 -1 -1 nan nan nan nan nan nan -12 nan nan nan nan nan nan nan nan nan nan nan nan nan nan -2 nan nan nan nan nan nan nan nan nan nan nan nan nan nan nan nan nan nan nan nan nan nan -0 -0 -0 -0 -0 -0 -0 -0 -0 -0 -0 -0 -0 -0
nan -38 -30 nan nan nan nan nan nan nan nan nan nan nan -23 -19 -27 -27 -33 nan nan nan nan nan nan -0 -0 -1 nan nan nan nan nan nan -9 nan nan nan nan nan nan nan nan nan nan nan -6 nan nan -0 -0 nan nan nan nan nan nan nan nan nan nan nan nan nan nan nan nan nan nan nan nan nan nan nan -0 -0 -0 -0 -0 -0 -0 -0 -0 -0 -0 -0
nan nan nan nan nan -27 nan nan nan nan nan nan nan nan -29 nan nan nan nan nan nan nan nan nan nan nan nan nan nan nan nan nan nan nan -21 nan nan nan nan nan nan nan nan nan nan nan -7 nan nan -0 -0 nan nan nan nan nan nan nan nan nan nan nan nan nan nan nan nan nan nan nan nan nan nan nan -0 -0 -0 -0 -0 -0 -0 -0 -0 -0 -0 -0
nan nan nan nan nan -19 -13 nan nan nan nan nan nan nan -22 nan nan nan nan nan nan nan nan nan nan nan nan nan nan nan nan nan nan nan nan nan nan nan nan nan nan nan nan nan nan nan -9 -5 -5 -3 nan nan nan nan nan nan nan nan nan nan nan nan nan nan nan nan nan nan nan nan nan nan nan nan -0 -0 -0 -0 -0 -0 -0 -0 -0 -0 -0 -0
nan -27 -9 -13 -13 -13 -10 -13 nan nan nan nan -22 -22 nan nan nan nan nan nan nan nan nan nan nan nan nan nan nan nan nan nan nan nan nan nan nan nan nan nan nan nan nan nan nan nan -10 -5 -5 -5 nan nan -0 -0 nan nan nan nan nan nan nan nan nan nan nan nan nan nan -0 -0 -0 -0 nan nan nan nan nan nan nan nan nan -0 -0 -0 -0 -0
-10 -4 -5 -5 -5 -6 -10 nan nan nan nan nan -17 -17 nan nan nan nan nan nan nan nan nan nan nan nan nan nan nan nan nan nan nan nan nan nan nan nan nan nan nan nan nan nan nan nan -10 -6 -6 -5 -4 nan nan nan nan nan nan nan nan nan nan nan nan nan nan nan nan nan -0 -0 -0 nan nan nan nan nan nan nan nan nan nan nan nan nan nan -0
-2 -3 -3 -0 -0 -7 -13 nan nan nan nan nan nan nan nan nan nan nan nan nan nan nan nan nan nan nan nan nan nan nan nan nan nan nan nan nan nan nan nan nan nan nan nan nan nan -17 -11 -7 -7 -5 -1 -5 -4 -4 nan nan nan nan nan nan nan nan nan nan nan nan nan nan nan nan nan nan nan nan nan nan nan nan nan nan nan nan nan nan nan nan
-1 -3 -3 -6 -6 -6 nan nan nan nan nan nan nan nan nan nan nan nan nan nan nan nan nan nan nan nan nan nan nan nan nan nan nan nan nan nan nan nan nan nan nan nan nan -14 -14 -15 -13 -9 -9 -6 -6 -6 -2 -2 nan nan nan nan -0 nan nan nan nan nan nan nan nan nan nan nan -0 -1 -0 -0 nan nan nan nan nan nan nan nan nan nan nan nan
-0 -1 -5 nan nan nan nan nan nan nan -17 nan nan nan nan nan nan nan nan nan nan nan nan nan nan nan nan nan nan nan nan nan nan nan nan nan nan nan nan nan nan nan -21 nan nan nan nan -6 -6 -5 -7 nan nan nan nan nan nan nan nan nan nan nan nan nan nan nan nan nan nan nan -0 -1 nan nan nan nan nan nan nan nan nan nan nan nan nan nan
-1 -3 -13 nan nan nan nan nan -5 -5 -12 nan nan nan nan nan nan nan nan nan nan nan nan nan nan nan nan nan nan nan nan nan nan nan nan nan nan nan nan nan nan nan nan nan nan nan -9 -4 -4 nan nan nan nan nan nan nan nan nan nan nan nan nan nan nan nan nan nan nan nan nan nan nan nan nan nan nan nan nan nan nan nan -0 -0 nan nan nan
-3 -7 -19 nan nan nan nan nan -3 -3 -12 nan nan nan nan nan nan nan nan nan nan nan nan nan nan nan nan nan nan nan nan nan nan nan nan nan nan nan nan nan nan nan nan nan nan nan nan nan nan nan nan nan nan nan nan nan nan nan nan nan nan nan nan nan nan nan nan nan nan nan nan nan nan nan nan nan nan nan nan nan nan nan nan nan nan nan
-14 -13 -16 -10 -10 nan nan -8 -4 -4 -7 -21 nan nan nan nan nan nan nan nan nan nan nan nan nan nan nan nan nan nan nan nan nan nan nan nan nan nan nan nan nan nan nan nan nan nan nan nan nan nan nan nan nan nan nan nan nan nan nan nan nan nan nan nan nan nan nan nan nan nan nan nan nan nan nan nan nan nan nan nan nan nan nan nan nan nan
-11 -15 -16 -16 -16 -22 -7 -4 -7 -7 nan nan nan nan nan nan nan nan nan nan nan nan nan nan nan nan nan nan nan nan nan nan nan nan nan nan nan nan nan nan nan nan nan nan nan nan nan nan nan nan nan nan nan nan nan nan nan nan nan nan nan nan nan nan nan nan nan nan nan nan nan nan nan nan nan nan nan nan nan nan nan nan nan nan nan nan
-11 -17 nan -22 -22 -18 nan nan nan nan nan nan nan nan nan nan nan nan nan nan nan nan nan nan nan nan nan nan nan nan nan nan nan nan nan nan nan nan nan nan nan nan nan nan nan nan nan nan nan nan nan nan nan nan nan nan nan nan nan nan nan nan nan nan nan nan nan nan nan nan nan nan nan nan nan nan nan nan nan nan nan nan nan nan nan nan
-7 -12 nan -14 -14 -11 nan nan nan nan nan nan nan nan nan nan nan nan nan nan nan nan nan nan nan nan nan nan nan nan nan nan nan nan nan nan nan nan nan nan nan nan nan nan nan nan nan nan nan nan nan nan nan nan nan nan nan nan nan nan nan nan nan nan nan nan nan nan nan nan nan nan nan nan nan nan nan nan nan nan nan nan nan nan nan nan
-11 -15 nan -11 -11 -9 nan nan nan nan nan nan nan nan nan nan -12 -12 nan nan nan nan nan nan nan nan nan nan nan nan nan nan nan nan nan nan nan nan nan nan nan nan nan nan nan nan nan nan nan nan nan nan nan nan nan nan nan nan nan nan nan nan nan nan nan nan nan nan nan nan nan nan nan nan nan nan nan nan nan nan nan nan nan nan nan -27
-11 nan -12 -6 -6 -5 nan nan nan nan nan nan nan nan nan nan nan nan nan nan nan nan nan nan nan nan nan nan nan nan nan nan nan nan nan nan nan nan nan nan nan nan nan nan nan nan nan nan nan nan nan nan nan nan nan nan nan nan nan nan nan nan nan nan nan nan nan nan nan nan nan nan nan nan nan nan nan nan nan nan nan nan nan nan nan -18
-8 nan nan -7 -7 -3 nan nan nan nan nan -1 -3 -3 nan nan nan nan nan nan nan nan nan nan nan nan nan -7 -10 -10 nan nan nan nan nan nan nan nan nan nan nan nan nan nan nan nan nan nan nan nan nan nan nan nan nan nan nan nan nan nan nan nan nan nan nan nan nan nan nan nan nan nan nan nan nan nan nan nan nan nan nan nan nan nan nan -12
Wind_Speed
1 1 1 1 1 2 4 5 6 6 6 5 4 4 4 5 5 5 7 7 6 6 5 6 6 7 8 12 14 16 18 19 19 20 20 21 21 22 22 22 22 22 22 22 21 21 20 20 20 20 20 20 20 20 21 21 21 21 20 20 20 20 20 21 21 22 22 22 22 22 23 23 23 23 23 23 23 24 24 24 24 24 24 24 25 25
1 1 1 2 3 3 4 5 5 5 5 5 4 4 4 4 4 4 5 5 6 5 5 6 6 6 7 9 12 15 17 18 19 20 20 21 21 21 22 22 22 22 22 22 21 21 20 20 20 19 19 19 20 20 20 20 20 20 20 20 20 20 21 21 21 21 21 22 22 22 22 22 23 23 23 23 23 23 23 24 24 24 24 24 24 24
1 1 2 3 4 4 4 4 4 4 4 4 4 4 4 4 4 4 4 5 5 5 5 6 6 6 7 8 11 14 16 18 19 19 20 20 21 21 21 21 22 22 22 21 21 20 20 19 19 19 19 19 19 19 19 20 20 20 20 20 21 21 21 21 21 21 21 21 21 22 22 22 22 22 22 23 23 23 23 23 24 24 24 24 24 24
2 2 2 2 3 3 3 3 3 3 4 4 5 5 5 5 5 5 5 5 5 5 6 6 6 6 6 7 9 12 15 17 18 19 20 20 20 21 21 21 21 21 21 21 20 20 19 19 18 18 18 18 19 19 19 19 20 20 20 21 21 21 21 20 20 20 20 21 21 21 21 21 22 22 22 22 22 23 23 23 24 24 24 24 24 24
2 2 2 1 2 2 3 3 4 4 4 4 5 5 5 4 5 5 5 5 5 5 5 6 6 6 6 5 7 10 14 16 17 18 19 19 20 20 21 21 21 21 21 20 20 19 19 18 18 18 18 18 19 19 19 20 20 20 21 21 21 21 20 20 20 20 20 20 21 21 21 21 21 22 22 22 22 22 23 23 24 24 24 24 24 24
2 1 1 1 2 2 3 3 3 4 4 4 4 4 4 4 4 4 4 4 5 5 5 5 5 5 5 5 7 10 13 15 16 17 17 18 19 20 21 21 21 21 21 20 20 19 19 19 19 18 18 19 19 19 20 20 20 21 21 21 21 21 20 20 20 20 20 20 20 21 21 21 22 22 22 22 22 22 23 23 23 24 24 24 24 25
2 2 2 2 2 3 3 3 3 3 3 3 4 4 4 4 4 4 4 4 4 4 4 4 4 5 5 6 7 9 10 11 13 14 15 17 18 19 20 21 21 21 21 21 20 20 20 19 19 19 19 19 19 20 20 20 21 21 21 21 20 20 20 19 19 20 20 20 21 21 21 21 22 22 22 22 22 23 23 23 23 24 24 24 24 25
3 2 2 3 3 3 3 3 3 3 3 4 4 4 4 4 4 4 4 4 4 4 4 4 4 4 4 4 4 5 6 7 8 9 11 13 15 16 18 19 21 21 21 21 21 21 20 20 20 19 19 19 20 20 20 20 21 21 21 20 20 20 19 19 19 20 20 20 21 21 22 22 22 22 22 22 22 23 23 23 23 24 24 24 25 25
3 3 3 3 3 3 3 3 3 3 3 4 4 4 4 4 4 4 4 4 4 3 3 3 3 3 3 2 2 3 5 6 6 7 9 9 10 12 15 17 19 20 21 21 21 21 21 20 20 19 19 19 20 20 21 21 21 21 20 20 20 19 19 19 19 20 20 21 21 22 22 22 22 22 22 22 23 23 23 23 23 24 24 24 24 25
3 4 3 3 3 3 3 4 4 4 4 4 4 4 4 5 5 4 4 4 3 3 2 2 3 3 3 2 2 3 5 7 9 11 12 12 13 14 15 16 16 17 20 21 21 22 21 21 20 19 19 20 20 21 21 21 21 21 20 20 19 19 19 19 20 20 21 21 22 22 22 22 22 23 23 23 23 23 23 23 23 24 24 24 24 24
3 3 3 3 3 3 3 3 4 3 3 3 3 3 3 3 4 4 5 5 4 3 3 2 2 3 4 3 3 4 4 5 7 9 11 12 14 15 15 15 15 17 19 19 20 20 20 20 20 20 20 20 21 21 22 21 21 21 20 20 19 19 19 20 20 21 21 22 22 22 23 23 23 23 23 23 23 23 23 24 24 24 24 24 24 24
3 3 2 3 3 2 2 3 3 3 3 3 3 3 3 2 2 3 5 6 5 5 4 3 3 3 3 4 4 4 4 4 4 5 5 7 8 9 9 10 11 12 13 14 15 16 17 18 19 19 20 20 21 21 21 21 21 21 20 20 19 19 20 20 21 22 22 22 22 23 23 23 23 23 23 23 23 23 24 24 24 24 24 24 24 24
3 2 2 2 2 2 2 2 2 3 2 3 3 4 3 3 3 3 4 5 5 5 4 4 4 3 3 4 4 4 4 4 4 4 4 4 4 4 4 5 5 5 6 6 7 8 12 15 17 18 19 19 20 21 21 21 20 20 20 20 20 20 20 21 22 22 22 23 23 23 23 23 23 23 23 23 23 23 24 24 24 24 24 24 24 25
2 2 2 2 2 2 2 3 3 3 3 3 3 3 4 3 3 3 4 5 5 5 4 5 5 5 4 4 4 3 3 3 3 3 3 3 3 3 4 4 4 4 3 4 4 5 8 10 11 13 16 17 18 18 18 19 20 20 20 20 20 20 21 22 22 23 23 23 23 23 23 23 23 23 23 23 23 23 23 24 24 24 24 24 24 25
2 2 2 3 3 3 3 3 3 4 4 3 3 3 3 3 3 3 4 5 5 5 5 6 7 6 5 4 3 3 3 3 3 3 3 3 3 3 4 4 4 4 3 4 4 5 8 8 8 8 10 12 13 15 17 18 19 20 20 20 21 21 22 22 23 23 23 23 23 23 23 23 23 23 23 23 23 23 23 23 24 24 24 24 24 24
2 2 3 3 3 3 3 3 3 4 4 3 3 3 3 4 4 4 4 5 5 5 6 7 7 7 5 2 2 3 3 2 2 2 4 4 4 4 4 4 4 4 4 4 5 5 6 6 6 7 8 11 14 17 19 19 20 20 20 21 21 22 22 23 23 23 23 23 23 23 23 23 23 23 23 23 23 23 23 23 23 24 24 24 24 24
2 2 3 3 3 4 3 3 3 3 3 3 3 3 3 4 4 4 4 4 5 5 5 5 5 5 3 2 1 2 2 2 3 3 4 4 4 4 4 4 4 5 5 5 5 5 5 5 5 6 6 10 14 18 19 19 20 20 21 21 22 22 23 23 23 23 23 23 23 23 23 23 23 23 23 23 23 23 23 23 23 24 24 24 24 24
2 2 2 3 3 3 3 3 3 3 3 3 3 3 3 3 3 4 4 4 4 4 4 4 3 3 3 2 2 2 2 3 4 4 5 5 5 4 4 4 4 5 5 5 4 4 5 5 5 6 8 13 16 18 19 19 20 20 21 22 22 22 23 23 23 23 23 23 23 23 23 23 23 23 23 23 23 23 23 23 23 24 24 24 24 24
2 2 3 3 3 3 3 2 2 3 3 3 3 3 3 3 3 3 3 3 3 4 4 4 3 3 3 4 4 4 3 4 4 5 5 6 5 4 4 4 5 5 5 5 5 5 5 5 6 9 12 16 17 18 19 20 20 21 21 22 22 23 23 23 23 23 23 23 23 23 23 23 23 23 23 23 23 23 23 23 23 23 24 24 24 24
3 3 3 4 4 4 3 2 2 3 3 3 4 3 3 3 3 3 3 3 3 3 3 4 4 4 4 4 5 5 4 4 4 4 5 5 5 5 4 4 4 5 5 5 4 4 5 5 6 9 12 15 17 19 19 20 21 21 22 22 22 23 23 23 23 23 23 23 23 23 23 23 23 23 23 23 23 23 23 23 23 23 24 24 24 24
4 4 3 3 3 3 3 2 3 3 4 4 4 3 3 3 3 3 4 4 4 4 3 4 4 4 4 5 6 6 5 4 3 3 3 4 4 3 3 3 4 5 5 5 4 4 5 5 5 6 9 14 17 19 20 21 21 22 22 22 22 22 23 23 23 23 23 23 23 23 23 22 22 22 22 22 23 23 23 23 23 23 23 23 23 23
3 3 3 3 3 3 3 3 4 5 5 5 4 4 4 4 4 5 4 4 4 4 4 4 4 4 5 5 6 6 4 3 3 3 3 3 4 3 3 3 4 5 5 4 4 5 5 5 5 7 10 15 18 19 20 21 21 22 22 22 22 22 23 23 23 23 23 23 23 23 22 22 22 22 22 22 22 23 23 23 23 23 23 23 23 23
2 3 3 3 3 3 4 4 4 4 4 4 4 4 4 4 4 4 4 4 4 4 4 4 4 4 4 5 5 4 3 2 2 2 3 4 4 4 3 3 4 5 4 4 4 5 5 5 5 7 10 15 18 19 20 21 21 22 22 22 22 23 23 23 23 23 23 23 23 22 22 22 22 22 22 22 22 23 23 23 23 23 23 23 23 24
2 3 3 3 3 3 3 4 4 4 3 3 3 3 3 3 3 3 3 3 3 4 4 4 4 5 4 5 5 4 3 3 3 2 2 3 4 3 3 3 4 5 5 4 5 5 6 6 6 6 7 12 16 18 20 21 21 21 22 22 23 23 23 23 23 23 23 23 22 22 22 22 22 22 22 22 22 23 23 23 23 23 23 23 24 24
3 3 3 4 5 6 6 6 6 6 5 4 4 3 3 3 3 3 3 3 3 3 4 5 5 5 4 5 5 4 3 3 3 2 2 2 3 3 3 3 4 5 6 5 5 5 6 6 6 6 6 9 13 17 18 20 21 21 22 22 23 23 23 23 23 23 23 23 22 22 22 22 22 22 22 23 23 23 23 23 23 23 23 23 23 23
7 7 8 10 12 13 15 14 14 13 12 9 6 5 4 4 4 4 4 4 4 4 5 5 5 5 5 4 4 4 3 3 3 2 2 2 3 3 3 3 4 5 6 6 5 6 6 6 6 6 5 7 10 14 17 19 20 21 22 22 23 23 23 23 23 23 23 22 22 22 22 22 22 23 23 23 23 23 23 23 23 23 23 22 22 21
14 14 16 16 17 17 17 17 17 17 16 14 11 9 6 5 4 4 4 4 4 4 4 5 5 5 5 4 4 4 3 2 2 2 2 2 3 3 3 3 4 5 6 6 6 6 8 7 7 6 5 5 6 9 14 17 19 21 22 22 22 23 23 23 23 23 22 22 22 22 23 23 23 23 23 23 23 23 23 23 23 22 22 20 18 16
15 16 16 16 16 16 16 16 15 15 15 14 14 13 9 6 4 4 4 4 4 4 4 5 5 5 5 5 4 4 3 2 2 2 2 2 2 3 3 4 4 5 6 6 6 7 8 7 6 6 5 5 5 7 11 15 17 19 20 21 21 22 22 22 22 22 22 23 23 23 23 23 23 23 23 23 23 23 23 23 22 21 19 15 11 9
13 13 13 14 14 14 14 12 12 13 14 14 14 13 9 6 4 4 4 4 4 5 5 5 5 5 5 5 4 4 2 2 2 2 3 2 2 3 3 4 4 5 5 6 6 6 5 5 4 4 5 6 6 7 8 11 13 14 15 18 19 20 21 21 22 22 22 23 23 23 23 23 23 23 23 23 23 23 23 23 22 19 14 11 9 8
8 8 8 9 10 10 9 7 8 11 13 14 14 12 8 5 4 3 4 4 4 5 5 5 5 5 5 4 4 3 2 1 2 2 3 3 3 3 4 4 5 5 5 6 5 5 4 4 4 4 5 7 7 7 7 8 8 9 9 12 14 16 19 20 21 22 22 22 22 22 23 23 23 23 23 23 23 22 22 23 20 16 10 8 8 8
5 5 4 5 5 5 5 5 6 8 10 12 11 10 7 5 4 3 3 4 4 4 4 5 5 5 5 4 4 3 2 2 2 3 3 3 3 4 4 5 5 5 5 5 5 5 5 5 5 5 5 6 7 7 7 7 7 7 6 7 9 11 16 19 20 20 20 21 21 22 22 23 23 23 23 22 22 22 22 22 20 15 10 8 8 8
4 4 4 4 4 3 3 4 5 6 7 7 7 6 6 5 4 3 3 3 3 3 4 4 4 4 4 4 4 3 3 2 3 4 4 3 3 3 3 4 5 5 5 5 5 5 5 5 5 6 6 6 6 7 7 7 7 6 7 7 7 9 14 16 17 17 17 18 19 20 21 21 22 22 22 22 22 22 22 22 20 16 10 8 8 8
5 4 4 4 4 4 4 4 5 5 5 5 4 4 4 4 4 4 3 2 2 3 3 4 4 4 4 4 4 3 3 3 4 6 6 3 3 3 3 4 5 5 5 5 5 5 5 6 6 6 7 7 6 6 7 7 7 7 7 7 7 8 11 12 12 12 13 14 15 16 18 19 20 20 21 21 21 21 22 22 21 18 13 9 8 8
5 5 5 5 4 4 4 4 5 5 4 4 4 4 3 3 3 3 3 3 2 2 2 3 4 4 4 4 3 3 3 3 5 6 6 3 2 3 3 4 4 5 5 5 5 5 5 6 7 7 7 7 6 6 6 7 7 7 6 7 7 7 9 9 9 9 10 10 10 10 12 13 15 16 17 18 19 20 21 22 22 21 18 12 9 8
5 5 5 5 5 4 4 4 4 4 4 4 4 3 3 3 3 3 3 3 2 2 2 2 3 3 4 4 4 4 4 4 5 6 6 3 2 2 3 3 4 4 5 5 6 5 5 7 8 8 7 7 7 6 6 6 6 6 6 7 7 7 7 8 8 8 9 9 8 8 8 9 10 12 13 16 18 20 21 22 22 21 20 17 14 11
5 5 5 5 4 4 4 4 4 4 4 4 3 3 3 3 3 3 3 2 2 2 3 3 3 3 3 3 4 4 5 5 6 6 6 3 2 2 2 3 3 4 4 5 5 6 6 7 8 9 9 8 7 6 6 6 6 6 7 7 7 7 7 7 8 8 8 8 8 8 8 9 9 10 11 15 18 20 21 21 21 20 20 20 18 16
4 4 5 4 4 4 4 4 4 4 4 3 3 3 3 3 3 3 2 2 2 2 3 3 4 4 4 4 4 5 6 6 6 6 6 3 2 1 2 2 3 3 3 4 5 6 6 7 8 8 8 7 6 6 7 7 7 7 7 8 8 8 8 8 8 8 8 8 9 9 9 9 9 10 11 15 17 17 18 18 18 18 19 19 19 19
4 4 4 4 4 4 4 4 4 4 4 3 3 3 3 3 3 2 2 2 2 3 3 3 4 5 7 7 7 7 7 7 7 7 6 3 2 2 2 3 3 3 3 4 5 5 6 6 7 8 7 6 7 8 8 8 8 8 8 8 8 7 7 7 7 8 8 9 9 10 10 10 9 9 10 11 11 11 12 12 13 15 16 16 17 18
5 5 5 5 5 5 5 5 5 5 4 4 3 3 3 3 3 2 2 3 3 3 4 4 4 5 6 8 9 9 9 8 8 7 4 2 2 2 2 3 3 3 3 4 4 5 5 6 6 6 7 7 8 8 8 7 7 8 9 9 8 7 7 7 7 8 8 8 9 10 10 9 9 9 9 9 9 9 9 10 10 11 12 11 12 14
6 6 6 7 6 6 5 6 6 5 4 4 3 3 2 2 3 3 3 3 3 4 4 4 4 4 5 6 7 7 7 6 5 4 2 1 1 2 2 3 3 4 4 4 4 4 5 5 6 7 7 7 7 8 7 6 7 8 10 9 7 7 8 8 8 7 7 8 9 9 9 9 9 9 9 9 9 9 9 8 9 10 10 9 8 9
6 6 6 6 6 7 6 6 6 5 4 3 2 2 2 2 3 3 4 4 4 4 3 3 3 3 4 4 4 4 4 3 3 2 1 2 2 2 2 3 3 4 5 5 5 5 5 6 7 7 7 7 8 9 9 8 9 10 11 9 8 8 9 9 8 8 8 8 8 9 10 10 10 10 10 10 9 8 8 8 9 9 9 8 7 6
7 6 6 6 6 6 6 6 6 5 3 2 2 2 2 2 2 3 3 4 4 4 4 3 3 4 4 4 4 4 4 4 4 4 3 3 2 2 2 3 3 4 5 6 6 7 7 7 7 7 7 7 7 8 8 8 9 9 9 9 9 10 9 8 7 7 8 8 8 9 10 10 10 10 10 10 9 9 9 9 9 10 10 8 7 6
6 6 6 6 6 6 7 7 6 5 3 2 2 2 1 1 2 2 3 3 4 4 4 4 4 4 4 4 4 4 4 4 4 5 5 5 4 4 4 4 5 5 6 6 7 7 7 7 7 7 7 7 7 8 9 9 9 8 8 8 9 8 7 7 7 8 8 8 8 8 8 9 9 9 9 9 9 9 8 9 10 10 10 8 7 7
5 5 5 5 6 6 6 6 5 5 4 3 2 2 2 2 2 2 2 3 4 4 4 4 3 3 3 4 4 4 4 4 4 4 4 6 6 6 6 6 6 5 5 5 6 7 8 8 7 7 6 6 7 7 8 8 8 8 7 8 8 7 6 7 8 9 9 9 8 8 8 9 9 9 9 9 8 8 8 8 8 8 8 7 7 7
5 5 6 6 6 6 6 6 6 5 5 4 3 2 2 2 2 2 2 3 3 4 4 4 4 4 4 4 4 4 4 4 4 4 3 5 7 8 6 5 5 5 4 4 4 5 6 7 7 6 5 5 5 6 7 8 8 8 8 8 8 7 7 7 8 8 8 8 8 9 9 10 10 9 9 9 9 8 8 8 8 8 8 7 7 6
5 5 6 6 6 6 7 7 6 6 5 4 3 3 2 2 1 2 2 3 3 3 3 3 3 4 4 4 4 4 5 5 5 4 4 4 5 5 5 5 5 5 5 5 4 4 5 5 6 6 6 5 5 5 6 6 6 6 7 8 8 7 7 7 7 7 7 8 8 9 10 10 10 9 8 9 9 9 9 8 8 8 8 8 7 7
6 6 6 6 6 6 6 6 6 6 5 5 4 3 2 1 2 2 2 3 3 3 4 3 3 3 4 4 5 5 6 6 6 6 5 5 5 5 4 4 5 5 5 5 5 5 5 6 5 5 5 5 5 5 5 5 5 5 6 7 7 7 7 7 7 7 7 7 8 9 11 10 9 8 8 9 9 9 9 8 8 8 7 7 7 7
6 6 6 6 6 6 6 6 6 6 6 5 4 3 2 2 2 3 3 3 3 3 4 4 4 4 4 4 5 6 7 7 6 6 6 6 6 5 5 5 5 5 5 5 5 6 6 6 6 5 4 4 4 4 4 4 4 5 6 6 7 7 8 7 7 7 7 7 8 9 10 9 8 8 9 9 8 8 9 9 8 8 7 7 7 7
6 6 7 6 6 5 5 6 6 6 6 5 4 3 2 3 4 4 3 3 3 3 3 4 4 4 4 5 5 6 7 6 5 5 6 6 6 6 6 6 6 6 5 5 4 4 4 5 5 5 4 3 3 3 4 5 5 5 5 6 6 7 7 7 7 7 7 8 9 9 9 8 7 7 8 8 8 9 9 9 9 8 7 7 7 7
6 6 7 6 6 6 6 6 6 7 7 6 5 3 3 3 3 3 3 3 3 3 4 4 4 5 5 5 6 7 6 6 5 5 6 6 6 6 7 7 8 7 7 6 5 5 5 4 4 4 4 4 3 3 4 5 6 6 5 5 5 6 7 7 7 8 8 8 8 9 9 8 7 7 6 7 8 9 9 9 9 8 8 7 7 7
7 7 7 7 6 6 6 6 6 7 7 6 5 4 4 4 3 3 3 3 4 4 4 4 4 5 6 6 7 6 6 5 5 6 6 6 6 7 7 7 8 8 8 8 8 7 6 6 5 5 5 7 8 7 5 5 6 7 6 6 6 6 6 7 7 8 8 8 8 8 8 7 7 7 6 7 7 8 8 8 9 9 9 8 7 7
Wind_Direction
17 322 312 251 256 264 263 250 248 251 257 256 254 252 252 254 256 257 257 260 261 263 264 266 268 270 273 278 282 285 288 291 293 295 297 298 300 301 301 301 302 302 302 302 302 301 301 300 300 300 299 298 297 296 295 294 293 294 294 295 297 299 301 302 303 303 303 303 303 304 305 307 308 309 310 310 310 310 310 309 308 306 305 303 301 300
324 292 272 233 235 246 261 249 243 243 251 256 258 257 256 257 259 261 262 261 261 261 264 267 268 267 268 272 279 283 286 289 292 294 295 296 297 297 298 298 299 299 300 300 301 301 300 300 300 299 299 297 296 295 294 293 292 292 293 295 297 299 301 302 302 302 302 303 303 304 306 307 309 310 310 310 310 309 308 307 306 304 302 301 300 300
281 271 258 230 228 236 257 256 252 250 256 264 268 269 267 267 269 270 271 270 266 263 262 263 265 266 265 268 276 281 284 287 289 291 292 293 294 295 296 297 297 298 298 298 299 299 299 299 299 298 297 296 295 294 293 292 292 293 294 296 297 299 301 302 302 302 302 302 303 305 306 308 309 310 310 309 309 308 307 306 304 303 302 301 301 301
267 264 260 246 239 243 259 270 275 276 274 276 276 275 273 272 272 271 269 268 267 265 262 259 260 262 264 265 271 277 281 284 287 289 291 293 295 297 298 299 299 299 298 298 298 298 298 298 298 297 297 296 295 294 294 294 294 295 296 298 299 301 302 303 303 302 302 302 303 305 307 308 309 309 309 308 307 306 306 305 304 303 302 302 302 303
267 266 270 276 274 271 272 278 281 281 280 278 277 275 273 269 269 269 267 264 263 263 262 259 257 257 260 261 267 273 279 283 288 292 295 298 300 302 303 303 302 301 300 299 299 298 298 298 298 297 297 296 296 296 296 297 298 298 299 300 301 303 304 303 303 302 301 302 304 306 307 308 309 309 308 307 306 306 305 304 303 302 302 303 304 306
275 279 289 289 285 281 280 277 276 277 280 279 276 273 270 267 266 267 268 266 264 263 262 260 257 256 257 259 267 274 281 287 293 298 302 305 306 307 306 305 304 303 301 300 299 298 297 297 297 296 296 297 297 297 298 299 299 300 301 302 303 304 304 303 302 302 302 303 305 307 308 309 309 308 307 306 305 304 304 303 303 303 304 306 307 308
287 291 295 285 278 275 275 274 274 275 279 282 281 278 274 270 267 265 264 264 266 268 270 267 264 262 261 263 269 276 284 293 301 306 308 308 308 307 306 304 303 302 301 299 298 297 296 295 295 295 295 296 296 297 298 299 300 301 302 303 304 305 304 303 302 302 302 304 306 308 309 309 309 308 307 306 305 304 303 303 304 305 306 307 307 307
288 289 283 277 276 277 277 275 274 272 270 277 282 285 283 278 273 270 269 270 272 275 278 278 275 271 268 267 273 280 289 299 305 308 309 308 306 305 304 302 301 300 299 298 297 296 294 294 293 293 294 295 296 297 297 299 300 302 303 304 305 304 303 302 302 302 303 306 308 309 310 309 308 307 306 305 304 304 304 305 306 306 307 307 306 305
276 278 274 268 270 277 283 279 273 268 266 270 275 281 286 286 285 282 281 282 281 279 279 283 284 282 275 275 284 294 300 302 304 305 305 304 303 302 301 301 300 300 299 298 297 295 294 293 293 293 293 295 296 298 299 300 302 304 305 305 305 304 302 302 302 303 305 307 308 309 310 309 308 307 306 305 305 305 306 306 306 306 306 305 304 304
261 263 268 264 262 265 276 280 277 271 264 265 267 271 279 286 291 293 292 290 287 285 282 286 291 294 293 292 294 299 302 302 301 301 300 300 300 300 300 301 301 301 300 300 299 298 297 296 295 294 295 297 298 300 301 303 304 305 306 305 305 303 302 302 303 304 306 308 309 309 309 308 307 306 306 306 306 306 306 306 305 304 304 303 303 303
257 257 261 266 265 263 262 270 274 275 272 274 274 274 274 281 291 299 302 300 299 299 298 296 298 302 304 302 298 296 297 298 298 299 299 300 300 301 301 302 303 303 304 305 305 305 304 302 300 299 299 299 300 301 303 304 305 305 305 305 304 303 303 303 304 305 306 307 308 308 307 307 306 306 306 306 306 305 305 305 304 303 303 303 303 303
254 258 259 267 273 275 271 272 275 281 289 294 297 295 292 290 296 303 305 304 306 308 308 305 300 297 296 297 297 295 292 291 293 296 300 302 303 303 303 304 305 307 309 311 311 311 308 305 303 301 300 300 301 302 303 304 304 305 304 304 303 303 303 304 305 305 306 306 307 306 306 306 306 306 306 306 305 305 304 304 303 303 303 303 303 302
252 258 267 274 278 279 280 287 293 300 303 302 300 298 297 302 305 305 301 303 307 311 313 310 303 294 287 286 289 293 294 294 298 304 309 309 306 303 300 300 301 302 305 306 304 301 302 300 299 299 299 299 300 301 302 302 302 302 302 302 303 303 303 304 304 305 305 306 306 305 305 306 306 306 306 306 305 304 304 304 303 303 303 303 303 302
260 267 277 282 279 278 278 288 295 298 297 293 291 289 291 300 307 309 306 308 311 312 312 306 301 297 293 289 290 296 309 314 317 317 312 306 302 300 297 293 289 286 285 283 280 281 286 291 294 296 297 298 299 300 301 301 300 300 301 301 302 303 304 304 305 305 305 305 305 305 305 306 306 306 306 306 305 305 304 304 303 303 303 302 302 302
261 270 275 274 274 277 284 290 292 292 290 288 288 292 298 307 315 320 320 316 314 313 312 304 299 295 292 297 313 336 344 336 326 314 304 298 296 297 296 291 287 283 283 284 285 285 288 291 293 294 295 296 297 298 299 299 300 300 301 302 303 303 304 305 305 305 305 305 306 306 307 307 307 307 306 306 305 305 304 304 303 303 302 302 302 302
255 262 270 273 277 282 287 289 289 289 291 292 297 306 317 322 325 326 322 315 314 314 314 307 303 299 295 315 5 21 6 340 314 298 296 293 294 295 293 290 289 289 288 289 289 290 291 291 290 290 291 294 296 298 299 300 301 302 303 303 304 305 305 305 306 306 306 307 307 308 308 309 308 308 307 306 305 305 304 304 303 303 303 302 302 302
252 259 266 277 285 289 291 290 289 292 301 309 319 327 331 326 323 319 314 313 314 315 312 304 301 301 308 345 39 46 10 324 302 292 292 292 294 293 288 286 287 289 290 288 288 289 291 290 290 289 289 294 298 300 302 303 304 304 305 305 305 306 306 306 306 307 308 309 309 310 310 310 309 308 307 306 305 305 304 304 303 303 303 303 302 302
259 265 276 284 288 292 297 301 304 310 318 323 325 324 320 312 309 307 307 313 314 312 306 298 294 298 313 318 327 333 329 307 298 294 294 294 295 294 285 280 280 284 288 291 292 294 296 295 296 297 298 302 303 304 305 306 306 306 306 306 306 306 307 307 308 309 310 311 311 312 311 310 309 308 307 306 306 305 305 304 304 304 303 303 302 301
275 282 292 293 294 296 301 308 316 323 326 322 319 314 307 302 301 302 306 314 314 310 306 304 303 303 307 302 305 308 305 298 296 296 296 296 297 297 292 288 289 293 299 303 306 307 308 306 306 306 307 308 308 308 308 308 307 307 307 307 307 308 308 309 310 311 313 313 313 313 312 310 309 308 307 307 306 306 306 305 305 305 304 303 302 301
287 289 290 294 298 302 303 308 318 324 321 316 311 306 300 301 306 314 322 324 318 309 302 299 300 301 304 303 303 303 301 299 297 295 293 295 298 302 308 313 316 317 315 311 311 313 314 313 310 309 309 310 310 309 309 308 308 308 308 308 308 309 310 312 313 314 315 315 315 314 312 311 310 309 309 308 308 307 307 307 306 305 305 304 303 302
291 292 295 309 315 314 312 320 327 327 321 316 310 303 301 310 319 323 323 318 311 304 296 293 298 305 311 309 306 303 301 304 302 299 296 299 305 315 333 339 335 326 318 312 311 313 313 311 308 307 309 309 309 309 309 308 308 308 309 309 310 312 313 315 316 317 317 316 315 314 313 312 311 310 310 309 309 308 308 308 307 306 306 305 305 304
298 306 323 338 337 327 320 321 322 322 320 319 317 317 319 323 322 318 314 309 305 303 305 305 308 310 309 304 299 298 302 307 307 304 307 306 309 321 347 347 336 324 314 310 309 309 308 307 305 305 307 308 309 309 308 308 309 309 310 311 313 314 316 318 318 318 318 317 316 315 314 313 312 312 311 311 310 310 309 309 308 308 307 307 307 307
325 332 344 348 342 329 320 316 312 311 312 311 308 307 308 307 307 307 309 309 311 314 318 317 315 312 308 302 300 304 325 340 343 330 317 307 310 319 345 343 332 320 310 307 307 308 308 306 304 303 305 307 308 308 308 308 309 310 312 313 315 317 318 319 319 319 319 318 317 316 315 314 314 313 313 312 312 312 311 311 311 310 310 309 309 309
356 348 342 332 321 311 304 303 305 306 306 299 293 288 282 283 289 298 308 317 323 327 328 327 326 324 319 318 317 324 355 12 14 2 333 310 312 322 337 335 324 314 308 307 308 309 308 305 303 301 301 305 306 307 308 309 311 312 314 316 317 319 320 320 320 320 319 319 318 317 316 316 315 315 315 315 314 314 314 314 313 313 312 312 312 312
353 340 328 323 323 325 327 326 326 326 325 317 309 303 300 308 315 323 330 338 342 344 342 339 334 329 325 326 323 326 353 16 21 14 347 319 314 316 320 320 316 312 309 309 311 311 308 304 301 300 299 302 304 307 309 311 313 315 317 318 319 320 321 321 321 321 320 319 319 318 318 318 317 317 317 317 317 317 316 316 316 315 315 315 315 315
348 344 342 340 339 338 338 337 337 336 336 333 330 331 338 345 350 352 354 355 355 353 347 338 331 325 322 321 318 320 340 11 21 16 353 326 314 310 308 312 314 314 312 312 313 312 307 303 301 300 299 301 305 308 311 313 316 317 319 320 320 321 321 322 322 321 321 320 320 320 320 320 320 320 320 320 319 319 319 319 318 318 319 319 318 317
350 348 346 345 344 343 342 341 340 339 339 339 343 352 6 8 7 2 357 358 359 355 346 335 327 322 320 319 315 316 336 7 11 358 344 323 310 305 306 315 319 318 315 313 311 309 306 304 303 302 302 301 305 310 315 317 318 319 320 320 321 321 322 322 322 322 322 321 321 321 322 322 322 322 322 322 321 321 321 321 321 322 322 322 321 318
354 353 351 348 345 343 342 342 343 344 346 348 356 6 18 20 15 7 1 1 1 356 346 334 327 322 318 317 313 314 336 7 1 343 339 327 312 306 311 322 325 323 318 312 309 306 305 302 301 301 302 305 309 314 318 320 320 320 320 320 321 321 322 322 322 322 323 323 323 323 323 323 323 323 323 323 323 323 323 324 324 324 325 324 321 316
355 353 350 346 343 341 340 343 349 355 360 4 12 20 30 32 26 14 6 5 1 353 340 330 323 317 311 310 308 310 334 6 357 342 342 334 322 315 322 328 330 327 321 314 310 306 303 299 298 301 304 312 316 319 320 322 321 319 318 319 320 321 322 323 323 323 323 323 324 324 324 324 324 324 324 324 324 324 325 326 326 326 326 323 318 312
351 349 346 341 338 337 340 348 1 10 14 17 20 25 33 38 34 22 10 7 358 347 332 323 317 313 311 311 310 312 326 345 350 349 353 344 334 330 333 332 331 330 327 319 314 310 306 303 302 305 310 317 320 321 320 320 319 317 316 319 320 322 323 323 323 324 324 324 324 324 324 325 325 325 325 325 325 325 326 327 327 327 325 320 315 311
339 338 334 330 330 335 346 2 16 21 21 21 21 22 22 26 26 21 11 5 352 337 320 314 310 310 313 315 316 316 321 328 347 358 4 350 338 332 334 331 330 329 331 325 319 314 312 311 312 314 318 320 320 320 320 319 319 318 319 320 321 322 323 323 324 324 324 324 324 324 324 324 325 325 325 326 326 326 326 327 327 327 324 320 315 311
332 331 326 324 329 342 1 17 24 25 22 19 16 11 5 5 5 5 3 354 339 321 308 304 305 307 311 311 311 310 314 319 341 353 1 350 334 326 330 329 327 327 328 324 318 313 311 313 316 319 323 322 321 320 320 321 321 322 323 324 322 321 322 323 323 323 323 323 323 323 324 324 324 325 325 326 326 326 326 326 327 327 325 320 315 310
333 332 331 335 344 358 14 22 24 22 17 10 2 355 351 350 348 347 345 337 326 315 308 306 306 307 307 305 302 301 304 306 326 339 351 349 334 321 324 326 325 324 324 322 317 312 306 309 313 316 319 319 320 320 321 322 323 324 326 325 322 320 320 322 323 322 322 322 322 322 323 323 324 325 325 326 326 326 325 326 326 326 325 320 313 310
339 340 342 349 356 4 13 18 18 14 6 354 343 335 332 334 336 335 331 327 325 319 311 308 306 306 307 305 303 301 298 295 309 324 343 347 334 318 320 322 323 323 325 324 322 317 309 310 312 314 315 316 317 318 320 321 323 324 324 322 319 317 318 321 321 320 320 320 320 320 321 322 323 325 325 325 325 325 325 325 325 325 324 320 315 311
348 351 354 356 358 1 5 8 5 359 348 335 327 324 326 327 326 322 320 323 324 318 302 292 291 294 298 302 302 300 294 288 299 313 331 338 331 317 316 316 320 323 325 323 323 321 315 314 314 315 314 314 315 316 318 319 320 321 320 318 317 316 316 318 318 318 318 320 320 320 321 322 323 324 325 325 325 325 325 325 324 324 323 321 319 315
353 354 354 352 351 352 354 355 351 342 331 323 320 321 325 321 316 311 312 316 314 306 295 283 277 275 276 279 281 282 282 282 292 305 317 324 323 311 305 303 310 317 320 320 320 318 315 313 313 314 315 315 315 316 317 319 320 320 319 319 318 317 315 316 317 317 318 320 322 323 324 325 325 325 323 324 324 324 324 324 323 323 322 322 320 319
350 349 346 343 342 343 344 343 337 331 321 319 320 323 322 314 307 304 306 304 300 294 292 287 281 275 271 265 261 263 270 278 287 295 302 301 296 285 283 288 299 309 313 313 314 314 312 311 312 314 315 315 314 315 317 321 323 323 321 320 320 318 316 317 318 319 320 322 324 325 326 326 325 324 322 323 324 324 324 323 322 322 322 321 320 319
347 344 341 341 341 341 339 334 329 324 320 321 322 319 311 306 302 301 304 297 289 283 282 282 281 279 276 274 271 268 271 275 279 282 285 280 267 258 269 283 294 301 301 302 305 307 309 310 313 315 315 313 312 312 314 318 320 320 318 317 317 316 316 318 320 322 324 325 326 326 326 326 325 323 321 323 324 325 323 323 322 322 322 321 319 318
351 348 345 344 343 340 334 328 324 321 320 320 316 309 302 309 314 316 313 299 287 277 270 268 272 276 278 279 279 279 280 277 274 273 273 262 246 246 263 280 288 293 295 296 298 301 304 307 310 313 313 313 312 312 312 313 314 315 315 316 317 318 320 322 324 326 328 328 328 327 326 325 324 323 322 323 324 324 322 320 320 320 321 319 317 316
351 348 344 342 339 333 327 322 319 318 318 314 310 307 311 329 336 335 326 314 301 286 270 262 262 267 271 277 282 287 292 290 287 283 273 249 232 236 254 272 285 294 300 299 298 301 305 306 306 307 307 307 308 309 309 310 312 314 318 319 320 322 324 324 325 327 330 329 328 327 325 324 324 324 324 323 322 320 318 316 315 315 315 313 312 312
349 344 339 335 329 324 319 316 315 314 313 312 316 324 341 353 351 345 336 329 320 308 292 282 280 283 288 291 297 304 317 329 333 328 309 277 264 260 262 272 284 296 304 307 309 311 313 310 308 306 305 304 303 303 303 304 308 312 316 316 314 314 317 320 324 328 331 329 328 326 325 324 325 325 323 321 318 314 310 307 306 306 307 306 306 306
346 340 333 326 321 319 316 315 314 314 316 323 329 336 344 358 355 347 340 333 328 323 319 322 325 327 325 321 319 324 340 352 356 353 342 324 307 293 283 287 295 305 315 318 319 318 316 312 308 305 304 304 303 303 301 302 305 310 313 311 310 310 311 317 325 331 331 329 326 325 326 325 324 323 321 318 314 309 306 303 302 303 304 304 304 303
342 334 326 319 317 316 316 317 319 323 333 339 335 328 332 354 355 345 331 324 320 317 319 324 327 328 326 323 324 327 332 334 342 349 351 344 338 331 323 322 324 329 332 327 322 317 314 311 307 303 301 302 301 300 299 302 305 307 308 309 313 316 318 323 328 330 328 326 325 325 327 325 322 319 316 312 309 306 305 304 303 302 302 301 301 300
337 330 324 322 322 323 325 329 332 337 343 340 332 324 329 345 347 339 326 314 311 312 316 318 322 326 331 331 331 329 327 324 328 336 341 340 340 340 336 336 335 334 332 326 320 317 315 311 306 301 298 298 297 296 296 298 301 304 305 308 312 314 314 317 321 324 324 324 324 325 326 324 321 317 313 311 309 308 308 308 307 304 303 300 298 298
335 331 329 330 331 332 333 334 336 338 340 337 333 329 329 337 339 333 318 308 309 312 316 323 332 339 339 337 333 330 328 327 328 331 330 331 333 334 333 331 327 324 322 317 313 311 311 308 305 301 298 294 289 288 289 292 296 300 303 308 310 311 308 311 315 319 321 322 323 324 325 324 321 318 315 315 314 314 313 311 310 309 307 307 305 304
338 334 333 333 333 333 333 334 334 334 333 333 332 329 323 327 325 318 308 307 310 315 319 332 344 347 340 333 331 332 332 331 332 333 332 328 326 327 327 328 329 328 324 315 306 298 294 294 295 297 300 297 291 285 281 286 293 299 304 311 314 314 313 314 316 318 319 320 320 321 323 322 320 318 316 316 315 314 313 311 311 311 311 311 312 311
341 336 333 331 331 332 333 334 333 331 328 325 324 321 317 315 316 314 309 310 314 320 326 337 347 349 336 331 333 337 337 336 336 335 332 329 327 327 328 330 331 329 324 315 307 300 291 285 284 286 291 296 296 293 290 292 297 304 309 314 317 318 317 317 318 319 320 319 319 319 321 321 320 318 315 314 314 313 314 314 313 313 313 315 316 317
338 334 331 330 330 331 334 335 334 331 326 322 319 318 316 316 325 328 317 319 323 329 333 341 344 341 333 333 338 341 341 338 335 333 330 330 330 332 335 336 334 331 324 315 308 301 294 286 280 275 272 273 282 294 302 309 313 315 315 318 319 319 317 317 318 320 320 319 318 318 319 319 318 316 314 314 314 315 317 317 317 318 318 320 322 322
337 333 331 330 331 334 337 338 336 332 326 323 322 323 322 320 328 333 327 327 332 339 344 345 343 339 336 338 341 343 342 338 333 329 328 330 334 337 340 339 338 335 328 322 315 307 299 291 283 277 271 262 272 295 312 320 323 323 321 320 320 319 317 317 319 321 321 319 317 317 316 313 310 307 308 311 313 315 316 317 318 319 322 325 326 324
336 334 333 332 333 335 338 338 336 332 328 327 330 336 337 333 334 335 334 339 345 349 350 348 346 343 341 341 342 342 341 336 332 329 329 334 338 341 343 342 340 339 336 335 334 332 326 318 308 304 314 329 341 343 332 329 326 324 323 322 321 320 318 317 318 319 321 319 317 316 314 310 308 307 309 311 312 313 314 317 319 321 324 325 325 323
336 335 336 334 334 335 337 337 336 333 329 332 338 346 348 344 341 340 343 351 355 356 354 351 349 347 345 342 340 338 335 333 332 332 334 338 342 345 345 344 343 343 341 341 342 343 343 341 335 333 340 353 359 360 345 334 329 326 326 326 325 323 320 316 316 316 317 316 314 312 311 310 311 313 316 314 313 314 315 318 319 320 322 323 322 321